sat.trackr.live / text

‹ back to catalog

ONEWEB-0703

NORAD 56724 · 2023-068Q

PAYLOAD ACTIVE UNKNOWN

§ Identity

Operator
Country
UK
Launch date
2023-05-20
Launch site
AFWTR
Launch vehicle
Mass (kg)
RCS (m²)

Purposes: comms

External: N2YO · Heavens-Above · Gunter

§ Orbital elements

Epoch: 2026-05-25T01:27:28.031040Z

Period
109.46 min
Inclination
87.8988°
Eccentricity
0.0001908
Mean motion
13.15547432 rev/d
Perigee alt
1,200.3 km
Apogee alt
1,203.2 km
Semi-major
7,579.9 km
B*
-1.9855e-4
RAAN
263.8115°
Arg perigee
73.7471°
Mean anomaly
286.3869°
Rev number
14,621

§ Raw data

ONEWEB-07031 56724U 23068Q   26145.06074110 -.00000062  00000+0 -19855-3 0  99902 56724  87.8988 263.8115 0001908  73.7471 286.3869 13.15547432146218

JSON: /api/v1/satellites/56724 · /tle

For live sub-satellite position, see the globe view (requires WebGL).

§ Visibility from observer

Set your observer location to see the next 7 days of passes ≥ 10°. The values pass through the URL so the page stays shareable.

No JS? Fill the form by hand. The geolocation button needs JavaScript.